Time,TemperatureF,DewpointF,PressureIn,WindDirection,WindDirectionDegrees,WindSpeedMPH,WindSpeedGustMPH,Humidity,HourlyPrecipIn,Conditions,Clouds,dailyrainin,SoftwareType,DateUTC
2013-06-08 00:01:00,55.0,42.6,30.01,North,0,0.0,0.0,63,0.00,,,0.00,WUHU216HW,2013-06-08 04:01:00,
2013-06-08 00:06:00,55.0,43.0,30.01,North,0,0.0,0.0,64,0.00,,,0.00,WUHU216HW,2013-06-08 04:06:00,
2013-06-08 00:11:00,55.0,43.0,30.01,North,0,0.0,0.0,64,0.00,,,0.00,WUHU216HW,2013-06-08 04:11:00,
2013-06-08 00:16:00,54.8,42.8,30.00,North,0,0.0,0.0,64,0.00,,,0.00,WUHU216HW,2013-06-08 04:16:00,
2013-06-08 00:21:00,54.3,42.3,30.00,North,0,0.0,0.0,64,0.00,,,0.00,WUHU216HW,2013-06-08 04:21:00,
2013-06-08 00:26:00,53.9,42.0,30.01,North,0,0.0,0.0,64,0.00,,,0.00,WUHU216HW,2013-06-08 04:26:00,
2013-06-08 00:32:00,53.2,42.1,30.01,North,0,0.0,0.0,66,0.00,,,0.00,WUHU216HW,2013-06-08 04:32:00,
2013-06-08 00:37:00,52.7,41.7,30.01,North,0,0.0,0.0,66,0.00,,,0.00,WUHU216HW,2013-06-08 04:37:00,
2013-06-08 00:42:00,52.7,42.4,30.00,North,0,0.0,0.0,68,0.00,,,0.00,WUHU216HW,2013-06-08 04:42:00,
2013-06-08 00:47:00,52.7,42.0,30.00,North,0,0.0,0.0,67,0.00,,,0.00,WUHU216HW,2013-06-08 04:47:00,
2013-06-08 00:52:00,52.5,42.2,30.00,North,0,0.0,0.0,68,0.00,,,0.00,WUHU216HW,2013-06-08 04:52:00,
2013-06-08 00:57:00,52.5,42.2,30.00,North,0,0.0,0.0,68,0.00,,,0.00,WUHU216HW,2013-06-08 04:57:00,
2013-06-08 01:02:00,52.5,42.6,30.00,North,0,0.0,0.0,69,0.00,,,0.00,WUHU216HW,2013-06-08 05:02:00,
2013-06-08 01:07:00,52.1,42.3,30.00,North,0,0.0,0.0,69,0.00,,,0.00,WUHU216HW,2013-06-08 05:07:00,
2013-06-08 01:12:00,51.9,42.1,30.00,North,0,0.0,0.0,69,0.00,,,0.00,WUHU216HW,2013-06-08 05:12:00,
2013-06-08 01:17:00,51.9,42.6,30.00,North,0,0.0,0.0,70,0.00,,,0.00,WUHU216HW,2013-06-08 05:17:00,
2013-06-08 01:22:00,51.8,42.4,30.00,North,0,0.0,0.0,70,0.00,,,0.00,WUHU216HW,2013-06-08 05:22:00,
2013-06-08 01:27:00,51.6,42.2,30.00,North,0,0.0,0.0,70,0.00,,,0.00,WUHU216HW,2013-06-08 05:27:00,
2013-06-08 01:32:00,51.4,42.0,30.00,North,0,0.0,0.0,70,0.00,,,0.00,WUHU216HW,2013-06-08 05:32:00,
2013-06-08 01:37:00,51.0,42.0,30.00,North,0,0.0,0.0,71,0.00,,,0.00,WUHU216HW,2013-06-08 05:37:00,
2013-06-08 01:42:00,50.7,41.7,30.00,North,0,0.0,0.0,71,0.00,,,0.00,WUHU216HW,2013-06-08 05:42:00,
2013-06-08 01:47:00,50.3,41.6,30.00,North,0,0.0,0.0,72,0.00,,,0.00,WUHU216HW,2013-06-08 05:47:00,
2013-06-08 01:52:00,50.3,42.0,30.00,North,0,0.0,0.0,73,0.00,,,0.00,WUHU216HW,2013-06-08 05:52:00,
2013-06-08 01:57:00,50.5,42.2,30.00,North,0,0.0,0.0,73,0.00,,,0.00,WUHU216HW,2013-06-08 05:57:00,
2013-06-08 02:02:00,50.3,42.0,30.00,North,0,0.0,0.0,73,0.00,,,0.00,WUHU216HW,2013-06-08 06:02:00,
2013-06-08 02:07:00,50.1,41.8,29.99,North,0,0.0,0.0,73,0.00,,,0.00,WUHU216HW,2013-06-08 06:07:00,
2013-06-08 02:12:00,49.8,41.8,29.99,North,0,0.0,0.0,74,0.00,,,0.00,WUHU216HW,2013-06-08 06:12:00,
2013-06-08 02:17:00,49.8,41.8,29.99,North,0,0.0,0.0,74,0.00,,,0.00,WUHU216HW,2013-06-08 06:17:00,
2013-06-08 02:22:00,49.6,41.4,29.99,North,0,0.0,0.0,74,0.00,,,0.00,WUHU216HW,2013-06-08 06:22:00,
2013-06-08 02:27:00,49.2,41.6,29.99,North,0,0.0,0.0,75,0.00,,,0.00,WUHU216HW,2013-06-08 06:27:00,
2013-06-08 02:32:00,49.2,41.9,29.99,North,0,0.0,0.0,76,0.00,,,0.00,WUHU216HW,2013-06-08 06:32:00,
2013-06-08 02:37:00,48.9,41.6,29.99,North,0,0.0,0.0,76,0.00,,,0.00,WUHU216HW,2013-06-08 06:37:00,
2013-06-08 02:42:00,48.7,41.4,29.99,North,0,0.0,0.0,76,0.00,,,0.00,WUHU216HW,2013-06-08 06:42:00,
2013-06-08 02:47:00,48.7,41.4,30.00,North,0,0.0,0.0,76,0.00,,,0.00,WUHU216HW,2013-06-08 06:47:00,
2013-06-08 02:52:00,48.5,41.5,30.00,North,0,0.0,0.0,77,0.00,,,0.00,WUHU216HW,2013-06-08 06:52:00,
2013-06-08 02:57:00,48.5,41.5,30.00,North,0,0.0,0.0,77,0.00,,,0.00,WUHU216HW,2013-06-08 06:57:00,
2013-06-08 03:02:00,48.3,41.4,29.99,North,0,0.0,0.0,77,0.00,,,0.00,WUHU216HW,2013-06-08 07:02:00,
2013-06-08 03:07:00,48.5,41.5,29.99,North,0,0.0,0.0,77,0.00,,,0.00,WUHU216HW,2013-06-08 07:07:00,
2013-06-08 03:12:00,48.5,41.5,29.99,North,0,0.0,0.0,77,0.00,,,0.00,WUHU216HW,2013-06-08 07:12:00,
2013-06-08 03:17:00,48.5,41.5,29.99,North,0,0.0,0.0,77,0.00,,,0.00,WUHU216HW,2013-06-08 07:17:00,
2013-06-08 03:22:00,48.3,41.4,29.99,North,0,0.0,0.0,77,0.00,,,0.00,WUHU216HW,2013-06-08 07:22:00,
2013-06-08 03:27:00,48.3,41.4,29.99,North,0,0.0,0.0,77,0.00,,,0.00,WUHU216HW,2013-06-08 07:27:00,
2013-06-08 03:32:00,48.2,41.2,29.99,North,0,0.0,0.0,77,0.00,,,0.00,WUHU216HW,2013-06-08 07:32:00,
2013-06-08 03:37:00,48.0,41.4,29.99,North,0,0.0,0.0,78,0.00,,,0.00,WUHU216HW,2013-06-08 07:37:00,
2013-06-08 03:42:00,48.0,41.4,29.99,North,0,0.0,0.0,78,0.00,,,0.00,WUHU216HW,2013-06-08 07:42:00,
2013-06-08 03:47:00,47.8,41.2,29.99,North,0,0.0,0.0,78,0.00,,,0.00,WUHU216HW,2013-06-08 07:47:00,
2013-06-08 03:52:00,47.8,41.2,29.99,North,0,0.0,0.0,78,0.00,,,0.00,WUHU216HW,2013-06-08 07:52:00,
2013-06-08 03:57:00,47.6,41.0,29.99,North,0,0.0,0.0,78,0.00,,,0.00,WUHU216HW,2013-06-08 07:57:00,
2013-06-08 04:02:00,47.8,41.2,29.99,North,0,0.0,0.0,78,0.00,,,0.00,WUHU216HW,2013-06-08 08:02:00,
2013-06-08 04:07:00,47.4,41.2,29.99,North,0,0.0,0.0,79,0.00,,,0.00,WUHU216HW,2013-06-08 08:07:00,
2013-06-08 04:12:00,47.3,41.1,30.00,North,0,0.0,0.0,79,0.00,,,0.00,WUHU216HW,2013-06-08 08:12:00,
2013-06-08 04:17:00,47.3,41.1,30.00,North,0,0.0,0.0,79,0.00,,,0.00,WUHU216HW,2013-06-08 08:17:00,
2013-06-08 04:22:00,47.4,41.2,29.99,North,0,0.0,0.0,79,0.00,,,0.00,WUHU216HW,2013-06-08 08:22:00,
2013-06-08 04:27:00,47.4,41.2,29.99,North,0,0.0,0.0,79,0.00,,,0.00,WUHU216HW,2013-06-08 08:27:00,
2013-06-08 04:32:00,47.4,41.2,29.99,North,0,0.0,0.0,79,0.00,,,0.00,WUHU216HW,2013-06-08 08:32:00,
2013-06-08 04:37:00,47.3,41.1,30.00,North,0,0.0,0.0,79,0.00,,,0.00,WUHU216HW,2013-06-08 08:37:00,
2013-06-08 04:42:00,47.1,40.9,30.00,North,0,0.0,0.0,79,0.00,,,0.00,WUHU216HW,2013-06-08 08:42:00,
2013-06-08 04:47:00,47.1,40.6,30.00,North,0,0.0,0.0,78,0.00,,,0.00,WUHU216HW,2013-06-08 08:47:00,
2013-06-08 04:52:00,47.1,40.9,30.00,North,0,0.0,0.0,79,0.00,,,0.00,WUHU216HW,2013-06-08 08:52:00,
2013-06-08 04:57:00,47.3,41.1,30.00,North,0,0.0,0.0,79,0.00,,,0.00,WUHU216HW,2013-06-08 08:57:00,
2013-06-08 05:02:00,47.3,41.1,30.00,North,0,0.0,0.0,79,0.00,,,0.00,WUHU216HW,2013-06-08 09:02:00,
2013-06-08 05:07:00,47.3,41.1,30.00,North,0,0.0,0.0,79,0.00,,,0.00,WUHU216HW,2013-06-08 09:07:00,
2013-06-08 05:12:00,47.1,40.9,30.01,North,0,0.0,0.0,79,0.00,,,0.00,WUHU216HW,2013-06-08 09:12:00,
2013-06-08 05:17:00,46.9,40.7,30.01,North,0,0.0,0.0,79,0.00,,,0.00,WUHU216HW,2013-06-08 09:17:00,
2013-06-08 05:22:00,46.5,40.8,30.00,North,0,0.0,0.0,80,0.00,,,0.00,WUHU216HW,2013-06-08 09:22:00,
2013-06-08 05:27:00,46.7,40.9,30.01,North,0,0.0,0.0,80,0.00,,,0.00,WUHU216HW,2013-06-08 09:27:00,
2013-06-08 05:32:00,46.5,40.8,30.01,North,0,0.0,0.0,80,0.00,,,0.00,WUHU216HW,2013-06-08 09:32:00,
2013-06-08 05:37:00,46.7,40.9,30.01,North,0,0.0,0.0,80,0.00,,,0.00,WUHU216HW,2013-06-08 09:37:00,
2013-06-08 05:42:00,46.7,40.9,30.01,North,0,0.0,0.0,80,0.00,,,0.00,WUHU216HW,2013-06-08 09:42:00,
2013-06-08 05:47:00,46.5,40.8,30.01,North,0,0.0,0.0,80,0.00,,,0.00,WUHU216HW,2013-06-08 09:47:00,
2013-06-08 05:52:00,46.5,40.8,30.01,North,0,0.0,0.0,80,0.00,,,0.00,WUHU216HW,2013-06-08 09:52:00,
2013-06-08 05:57:00,46.5,40.8,30.01,North,0,0.0,0.0,80,0.00,,,0.00,WUHU216HW,2013-06-08 09:57:00,
2013-06-08 06:02:00,46.5,40.8,30.01,North,0,0.0,0.0,80,0.00,,,0.00,WUHU216HW,2013-06-08 10:02:00,
2013-06-08 06:07:00,46.4,40.6,30.02,North,0,0.0,0.0,80,0.00,,,0.00,WUHU216HW,2013-06-08 10:07:00,
2013-06-08 06:12:00,46.4,40.6,30.02,North,0,0.0,0.0,80,0.00,,,0.00,WUHU216HW,2013-06-08 10:12:00,
2013-06-08 06:17:00,46.2,40.4,30.02,North,0,0.0,0.0,80,0.00,,,0.00,WUHU216HW,2013-06-08 10:17:00,
2013-06-08 06:22:00,46.0,40.2,30.01,North,0,0.0,0.0,80,0.00,,,0.00,WUHU216HW,2013-06-08 10:22:00,
2013-06-08 06:27:00,46.2,40.7,30.02,North,0,0.0,0.0,81,0.00,,,0.00,WUHU216HW,2013-06-08 10:27:00,
2013-06-08 06:32:00,46.2,40.7,30.02,North,0,0.0,0.0,81,0.00,,,0.00,WUHU216HW,2013-06-08 10:32:00,
2013-06-08 06:37:00,46.2,40.7,30.02,North,0,0.0,0.0,81,0.00,,,0.00,WUHU216HW,2013-06-08 10:37:00,
2013-06-08 06:42:00,46.4,41.1,30.02,North,0,0.0,0.0,81,0.00,,,0.00,WUHU216HW,2013-06-08 10:42:00,
2013-06-08 06:47:00,46.5,41.1,30.02,North,0,0.0,0.0,81,0.00,,,0.00,WUHU216HW,2013-06-08 10:47:00,
2013-06-08 06:52:00,46.7,41.2,30.02,North,0,0.0,0.0,81,0.00,,,0.00,WUHU216HW,2013-06-08 10:52:00,
2013-06-08 06:57:00,46.7,41.2,30.03,North,0,0.0,0.0,81,0.00,,,0.00,WUHU216HW,2013-06-08 10:57:00,
2013-06-08 07:02:00,46.9,41.4,30.03,North,0,0.0,0.0,81,0.00,,,0.00,WUHU216HW,2013-06-08 11:02:00,
2013-06-08 07:07:00,46.9,41.4,30.03,North,0,0.0,0.0,81,0.00,,,0.00,WUHU216HW,2013-06-08 11:07:00,
2013-06-08 07:12:00,47.1,41.5,30.04,North,0,0.0,0.0,81,0.00,,,0.00,WUHU216HW,2013-06-08 11:12:00,
2013-06-08 07:17:00,47.1,41.5,30.04,North,0,0.0,0.0,81,0.00,,,0.00,WUHU216HW,2013-06-08 11:17:00,
2013-06-08 07:22:00,47.3,41.7,30.04,North,0,0.0,0.0,81,0.00,,,0.00,WUHU216HW,2013-06-08 11:22:00,
2013-06-08 07:27:00,47.4,41.9,30.05,North,0,0.0,0.0,81,0.00,,,0.00,WUHU216HW,2013-06-08 11:27:00,
2013-06-08 07:32:00,47.4,41.9,30.05,North,0,0.0,0.0,81,0.00,,,0.00,WUHU216HW,2013-06-08 11:32:00,
2013-06-08 07:37:00,48.0,42.7,30.05,North,0,0.0,0.0,82,0.00,,,0.00,WUHU216HW,2013-06-08 11:37:00,
2013-06-08 07:42:00,48.0,42.7,30.04,North,0,0.0,0.0,82,0.00,,,0.00,WUHU216HW,2013-06-08 11:42:00,
2013-06-08 07:47:00,48.3,43.0,30.04,North,0,0.0,0.0,82,0.00,,,0.00,WUHU216HW,2013-06-08 11:47:00,
2013-06-08 07:54:00,49.1,43.7,30.06,North,0,0.0,0.0,82,0.00,,,0.00,WUHU216HW,2013-06-08 11:54:00,
2013-06-08 07:59:00,49.6,43.9,30.06,North,0,0.0,0.0,82,0.00,,,0.00,WUHU216HW,2013-06-08 11:59:00,
2013-06-08 08:04:00,49.8,44.4,30.06,North,0,0.0,0.0,82,0.00,,,0.00,WUHU216HW,2013-06-08 12:04:00,
2013-06-08 08:09:00,50.5,45.2,30.06,North,0,0.0,0.0,82,0.00,,,0.00,WUHU216HW,2013-06-08 12:09:00,
2013-06-08 08:14:00,51.4,45.7,30.06,West,270,0.0,0.0,82,0.00,,,0.00,WUHU216HW,2013-06-08 12:14:00,
2013-06-08 08:19:00,52.1,47.1,30.06,SW,225,0.0,0.0,83,0.00,,,0.00,WUHU216HW,2013-06-08 12:19:00,
2013-06-08 08:24:00,52.7,47.6,30.06,SW,225,0.0,0.0,83,0.00,,,0.00,WUHU216HW,2013-06-08 12:24:00,
2013-06-08 08:29:00,53.4,48.3,30.06,WNW,293,0.0,0.0,83,0.00,,,0.00,WUHU216HW,2013-06-08 12:29:00,
2013-06-08 08:34:00,53.7,48.4,30.07,SW,225,0.0,0.0,82,0.00,,,0.00,WUHU216HW,2013-06-08 12:34:00,
2013-06-08 08:39:00,54.3,48.9,30.06,SW,225,0.0,0.0,82,0.00,,,0.00,WUHU216HW,2013-06-08 12:39:00,
2013-06-08 08:44:00,54.5,48.9,30.07,West,270,0.6,0.8,81,0.00,,,0.00,WUHU216HW,2013-06-08 12:44:00,
2013-06-08 08:49:00,55.0,48.5,30.07,SSW,203,0.0,0.8,79,0.00,,,0.00,WUHU216HW,2013-06-08 12:49:00,
2013-06-08 08:54:00,55.2,48.7,30.07,WNW,293,0.0,0.6,79,0.00,,,0.00,WUHU216HW,2013-06-08 12:54:00,
2013-06-08 08:59:00,55.9,49.1,30.07,NW,315,0.0,0.0,78,0.00,,,0.00,WUHU216HW,2013-06-08 12:59:00,
2013-06-08 09:04:00,56.3,49.4,30.07,NW,315,0.0,0.0,78,0.00,,,0.00,WUHU216HW,2013-06-08 13:04:00,
2013-06-08 09:09:00,56.8,48.9,30.07,West,270,0.0,1.1,75,0.00,,,0.00,WUHU216HW,2013-06-08 13:09:00,
2013-06-08 09:14:00,57.3,47.6,30.08,SW,225,0.0,2.2,70,0.00,,,0.00,WUHU216HW,2013-06-08 13:14:00,
2013-06-08 09:19:00,57.9,47.7,30.08,SW,225,0.6,2.2,69,0.00,,,0.00,WUHU216HW,2013-06-08 13:19:00,
2013-06-08 09:24:00,58.4,47.9,30.08,SSW,203,0.0,1.7,68,0.00,,,0.00,WUHU216HW,2013-06-08 13:24:00,
2013-06-08 09:29:00,58.8,47.4,30.08,WSW,248,1.3,3.5,66,0.00,,,0.00,WUHU216HW,2013-06-08 13:29:00,
2013-06-08 09:33:00,59.7,47.1,30.08,SSW,203,0.0,3.5,63,0.00,,,0.00,WUHU216HW,2013-06-08 13:33:00,
2013-06-08 09:38:00,60.0,47.0,30.08,SSW,203,0.0,2.9,62,0.00,,,0.00,WUHU216HW,2013-06-08 13:38:00,
2013-06-08 09:43:00,60.4,46.5,30.08,SSW,203,0.0,7.3,60,0.00,,,0.00,WUHU216HW,2013-06-08 13:43:00,
2013-06-08 09:48:00,61.1,47.6,30.08,SW,225,3.5,7.3,61,0.00,,,0.00,WUHU216HW,2013-06-08 13:48:00,
2013-06-08 09:53:00,61.5,48.0,30.09,SSW,203,3.8,3.8,61,0.00,,,0.00,WUHU216HW,2013-06-08 13:53:00,
2013-06-08 09:58:00,62.2,47.9,30.08,West,270,2.9,3.8,60,0.00,,,0.00,WUHU216HW,2013-06-08 13:58:00,
2013-06-08 10:03:00,62.7,48.2,30.08,West,270,0.0,5.8,59,0.00,,,0.00,WUHU216HW,2013-06-08 14:03:00,
2013-06-08 10:08:00,62.7,48.2,30.08,West,270,0.0,6.4,59,0.00,,,0.00,WUHU216HW,2013-06-08 14:08:00,
2013-06-08 10:13:00,62.9,48.3,30.08,WSW,248,0.0,6.4,59,0.00,,,0.00,WUHU216HW,2013-06-08 14:13:00,
2013-06-08 10:18:00,63.5,48.8,30.08,SSW,203,2.0,4.0,59,0.00,,,0.00,WUHU216HW,2013-06-08 14:18:00,
2013-06-08 10:23:00,63.6,48.5,30.09,SSW,203,0.0,4.0,58,0.00,,,0.00,WUHU216HW,2013-06-08 14:23:00,
2013-06-08 10:28:00,64.2,49.0,30.09,SW,225,0.0,2.0,58,0.00,,,0.00,WUHU216HW,2013-06-08 14:28:00,
2013-06-08 10:33:00,64.5,49.3,30.08,SSW,203,0.8,7.6,58,0.00,,,0.00,WUHU216HW,2013-06-08 14:33:00,
2013-06-08 10:38:00,64.5,49.8,30.09,SSW,203,3.1,7.6,59,0.00,,,0.00,WUHU216HW,2013-06-08 14:38:00,
2013-06-08 10:43:00,65.4,50.7,30.09,SW,225,8.2,8.2,59,0.00,,,0.00,WUHU216HW,2013-06-08 14:43:00,
2013-06-08 10:48:00,65.8,51.1,30.09,West,270,0.0,8.2,59,0.00,,,0.00,WUHU216HW,2013-06-08 14:48:00,
2013-06-08 10:53:00,66.2,51.0,30.10,NW,315,0.0,8.2,58,0.00,,,0.00,WUHU216HW,2013-06-08 14:53:00,
2013-06-08 10:58:00,67.1,50.8,30.10,SW,225,4.4,5.3,56,0.00,,,0.00,WUHU216HW,2013-06-08 14:58:00,
2013-06-08 11:03:00,67.2,51.0,30.09,SW,225,4.6,6.0,56,0.00,,,0.00,WUHU216HW,2013-06-08 15:03:00,
2013-06-08 11:08:00,67.2,51.0,30.09,WSW,248,2.4,6.0,56,0.00,,,0.00,WUHU216HW,2013-06-08 15:08:00,
2013-06-08 11:13:00,67.1,50.8,30.09,SW,225,3.1,6.0,56,0.00,,,0.00,WUHU216HW,2013-06-08 15:13:00,
2013-06-08 11:18:00,67.4,50.6,30.09,WSW,248,4.2,6.0,55,0.00,,,0.00,WUHU216HW,2013-06-08 15:18:00,
2013-06-08 11:23:00,67.8,51.4,30.09,WSW,248,1.7,4.2,56,0.00,,,0.00,WUHU216HW,2013-06-08 15:23:00,
2013-06-08 11:28:00,68.7,51.3,30.09,SW,225,1.3,4.2,54,0.00,,,0.00,WUHU216HW,2013-06-08 15:28:00,
2013-06-08 11:33:00,69.2,51.8,30.09,WNW,293,5.1,5.1,54,0.00,,,0.00,WUHU216HW,2013-06-08 15:33:00,
2013-06-08 11:38:00,69.6,52.1,30.08,NNW,338,0.8,5.1,54,0.00,,,0.00,WUHU216HW,2013-06-08 15:38:00,
2013-06-08 11:43:00,69.6,51.6,30.08,North,0,1.7,5.1,53,0.00,,,0.00,WUHU216HW,2013-06-08 15:43:00,
2013-06-08 11:48:00,69.9,52.0,30.08,West,270,0.0,1.7,53,0.00,,,0.00,WUHU216HW,2013-06-08 15:48:00,
2013-06-08 11:53:00,70.5,52.5,30.08,SSW,203,0.0,2.4,53,0.00,,,0.00,WUHU216HW,2013-06-08 15:53:00,
2013-06-08 11:58:00,71.2,52.6,30.08,West,270,2.4,4.4,52,0.00,,,0.00,WUHU216HW,2013-06-08 15:58:00,
2013-06-08 12:03:00,71.7,53.1,30.08,SSW,203,0.8,4.4,52,0.00,,,0.00,WUHU216HW,2013-06-08 16:03:00,
2013-06-08 12:08:00,71.9,52.8,30.08,WSW,248,1.3,2.4,51,0.00,,,0.00,WUHU216HW,2013-06-08 16:08:00,
2013-06-08 12:13:00,72.1,52.9,30.08,NW,315,0.0,1.3,51,0.00,,,0.00,WUHU216HW,2013-06-08 16:13:00,
2013-06-08 12:18:00,72.6,52.9,30.08,SSW,203,5.8,5.8,50,0.00,,,0.00,WUHU216HW,2013-06-08 16:18:00,
2013-06-08 12:23:00,73.0,52.6,30.08,WNW,293,0.0,5.8,49,0.00,,,0.00,WUHU216HW,2013-06-08 16:23:00,
2013-06-08 12:28:00,73.7,53.3,30.08,WNW,293,0.0,5.8,49,0.00,,,0.00,WUHU216HW,2013-06-08 16:28:00,
2013-06-08 12:33:00,74.4,53.4,30.08,West,270,0.0,3.8,48,0.00,,,0.00,WUHU216HW,2013-06-08 16:33:00,
2013-06-08 12:38:00,74.4,52.2,30.08,West,270,0.0,2.2,46,0.00,,,0.00,WUHU216HW,2013-06-08 16:38:00,
2013-06-08 12:43:00,74.3,52.0,30.08,SSW,203,7.8,7.8,46,0.00,,,0.00,WUHU216HW,2013-06-08 16:43:00,
2013-06-08 12:48:00,74.1,51.9,30.08,West,270,0.6,7.8,46,0.00,,,0.00,WUHU216HW,2013-06-08 16:48:00,
2013-06-08 12:53:00,73.9,51.7,30.08,WNW,293,0.6,7.8,46,0.00,,,0.00,WUHU216HW,2013-06-08 16:53:00,
2013-06-08 12:58:00,74.6,52.4,30.08,WSW,248,3.8,3.8,46,0.00,,,0.00,WUHU216HW,2013-06-08 16:58:00,
2013-06-08 13:03:00,75.0,52.7,30.08,NW,315,1.1,3.8,46,0.00,,,0.00,WUHU216HW,2013-06-08 17:03:00,
2013-06-08 13:08:00,75.5,53.2,30.08,West,270,1.3,3.8,46,0.00,,,0.00,WUHU216HW,2013-06-08 17:08:00,
2013-06-08 13:13:00,75.9,52.9,30.08,SSE,158,1.5,5.3,45,0.00,,,0.00,WUHU216HW,2013-06-08 17:13:00,
2013-06-08 13:18:00,75.9,52.9,30.08,NW,315,1.7,5.3,45,0.00,,,0.00,WUHU216HW,2013-06-08 17:18:00,
2013-06-08 13:23:00,75.9,52.9,30.08,SSW,203,0.0,1.7,45,0.00,,,0.00,WUHU216HW,2013-06-08 17:23:00,
2013-06-08 13:28:00,76.6,53.0,30.08,NW,315,4.4,4.4,44,0.00,,,0.00,WUHU216HW,2013-06-08 17:28:00,
2013-06-08 13:33:00,76.8,53.1,30.08,NE,45,1.1,4.4,44,0.00,,,0.00,WUHU216HW,2013-06-08 17:33:00,
2013-06-08 13:38:00,76.8,53.1,30.08,SSW,203,0.0,4.4,44,0.00,,,0.00,WUHU216HW,2013-06-08 17:38:00,
2013-06-08 13:43:00,78.4,54.0,30.08,West,270,2.2,2.2,43,0.00,,,0.00,WUHU216HW,2013-06-08 17:43:00,
2013-06-08 13:48:00,78.6,54.8,30.08,North,0,0.0,2.2,44,0.00,,,0.00,WUHU216HW,2013-06-08 17:48:00,
2013-06-08 13:53:00,79.3,54.8,30.08,WNW,293,0.0,2.2,43,0.00,,,0.00,WUHU216HW,2013-06-08 17:53:00,
2013-06-08 13:58:00,80.0,54.8,30.08,North,0,0.0,0.8,42,0.00,,,0.00,WUHU216HW,2013-06-08 17:58:00,
2013-06-08 14:03:00,80.2,54.4,30.08,WSW,248,2.4,2.4,41,0.00,,,0.00,WUHU216HW,2013-06-08 18:03:00,
2013-06-08 14:08:00,79.8,54.7,30.08,North,0,0.0,2.4,42,0.00,,,0.00,WUHU216HW,2013-06-08 18:08:00,
2013-06-08 14:12:00,79.8,54.7,30.08,WNW,293,0.0,0.0,42,0.00,,,0.00,WUHU216HW,2013-06-08 18:12:00,
2013-06-08 14:13:00,79.8,54.7,30.08,WNW,293,0.0,4.0,42,0.00,,,0.00,WUHU216HW,2013-06-08 18:13:00,
2013-06-08 14:18:00,79.8,54.7,30.08,WNW,293,0.0,4.0,42,0.00,,,0.00,WUHU216HW,2013-06-08 18:18:00,
2013-06-08 17:11:00,80.9,47.4,30.08,NNW,338,0.0,0.0,31,0.00,,,0.00,WUHU216HW,2013-06-08 21:11:00,
2013-06-08 17:12:00,80.9,47.4,30.08,NNW,338,0.0,0.0,31,0.00,,,0.00,WUHU216HW,2013-06-08 21:12:00,
2013-06-08 17:17:00,80.9,47.4,30.08,NNW,338,0.0,0.0,31,0.00,,,0.00,WUHU216HW,2013-06-08 21:17:00,
2013-06-08 17:48:00,80.9,47.4,30.08,North,0,0.0,0.0,31,0.00,,,0.00,WUHU216HW,2013-06-08 21:48:00,
2013-06-08 18:59:00,77.5,46.0,30.09,NE,45,0.0,0.0,33,0.00,,,0.00,WUHU216HW,2013-06-08 22:59:00,
2013-06-08 19:04:00,77.5,46.0,30.08,NNE,23,0.0,0.0,33,0.00,,,0.00,WUHU216HW,2013-06-08 23:04:00,
2013-06-08 19:09:00,77.7,46.9,30.08,NE,45,0.0,0.0,34,0.00,,,0.00,WUHU216HW,2013-06-08 23:09:00,
2013-06-08 19:14:00,78.0,46.4,30.08,North,0,0.0,0.0,33,0.00,,,0.00,WUHU216HW,2013-06-08 23:14:00,
2013-06-08 19:19:00,78.4,46.7,30.08,NE,45,0.0,0.0,33,0.00,,,0.00,WUHU216HW,2013-06-08 23:19:00,
2013-06-08 19:24:00,78.6,48.4,30.09,NNE,23,0.0,0.0,35,0.00,,,0.00,WUHU216HW,2013-06-08 23:24:00,
2013-06-08 19:29:00,78.4,48.3,30.09,NNE,23,0.0,0.0,35,0.00,,,0.00,WUHU216HW,2013-06-08 23:29:00,
2013-06-08 19:34:00,78.0,48.0,30.09,NE,45,0.0,0.0,35,0.00,,,0.00,WUHU216HW,2013-06-08 23:34:00,
2013-06-08 19:39:00,78.0,48.7,30.09,NE,45,0.0,0.0,36,0.00,,,0.00,WUHU216HW,2013-06-08 23:39:00,
2013-06-08 19:47:00,78.0,48.7,30.09,ENE,68,0.0,0.0,36,0.00,,,0.00,WUHU216HW,2013-06-08 23:47:00,
2013-06-08 19:52:00,78.0,48.7,30.10,ENE,68,0.8,0.8,36,0.00,,,0.00,WUHU216HW,2013-06-08 23:52:00,
2013-06-08 19:57:00,78.0,48.7,30.10,ENE,68,0.0,0.8,36,0.00,,,0.00,WUHU216HW,2013-06-08 23:57:00,
2013-06-08 20:02:00,78.0,49.5,30.10,NE,45,0.0,0.8,37,0.00,,,0.00,WUHU216HW,2013-06-09 00:02:00,
2013-06-08 20:07:00,77.9,49.4,30.10,NE,45,0.0,0.0,37,0.00,,,0.00,WUHU216HW,2013-06-09 00:07:00,
2013-06-08 20:12:00,77.5,49.1,30.10,NE,45,0.0,0.0,37,0.00,,,0.00,WUHU216HW,2013-06-09 00:12:00,
2013-06-08 20:17:00,76.8,49.2,30.10,ENE,68,0.0,0.0,38,0.00,,,0.00,WUHU216HW,2013-06-09 00:17:00,
2013-06-08 20:22:00,76.1,48.5,30.10,ENE,68,0.0,0.0,38,0.00,,,0.00,WUHU216HW,2013-06-09 00:22:00,
2013-06-08 20:27:00,75.7,49.0,30.10,ENE,68,0.0,0.0,39,0.00,,,0.00,WUHU216HW,2013-06-09 00:27:00,
2013-06-08 20:32:00,75.0,48.3,30.10,ENE,68,0.0,0.0,39,0.00,,,0.00,WUHU216HW,2013-06-09 00:32:00,
2013-06-08 20:37:00,74.8,48.9,30.10,ENE,68,0.0,0.0,40,0.00,,,0.00,WUHU216HW,2013-06-09 00:37:00,
2013-06-08 20:42:00,74.3,48.4,30.10,ENE,68,0.0,0.0,40,0.00,,,0.00,WUHU216HW,2013-06-09 00:42:00,
2013-06-08 20:48:00,74.1,48.9,30.10,ENE,68,0.0,0.0,41,0.00,,,0.00,WUHU216HW,2013-06-09 00:48:00,
2013-06-08 20:53:00,73.5,48.5,30.10,ENE,68,0.0,0.0,41,0.00,,,0.00,WUHU216HW,2013-06-09 00:53:00,
2013-06-08 20:58:00,73.2,48.6,30.10,ENE,68,0.0,0.0,42,0.00,,,0.00,WUHU216HW,2013-06-09 00:58:00,
2013-06-08 21:03:00,73.0,48.5,30.10,ENE,68,0.0,0.0,42,0.00,,,0.00,WUHU216HW,2013-06-09 01:03:00,
2013-06-08 21:08:00,72.6,48.7,30.10,ENE,68,0.0,0.0,43,0.00,,,0.00,WUHU216HW,2013-06-09 01:08:00,
2013-06-08 21:13:00,72.3,48.4,30.10,ENE,68,0.0,0.0,43,0.00,,,0.00,WUHU216HW,2013-06-09 01:13:00,
2013-06-08 21:18:00,71.9,48.7,30.10,ENE,68,0.0,0.0,44,0.00,,,0.00,WUHU216HW,2013-06-09 01:18:00,
2013-06-08 21:23:00,71.4,48.2,30.10,ENE,68,0.0,0.0,44,0.00,,,0.00,WUHU216HW,2013-06-09 01:23:00,
2013-06-08 21:28:00,70.8,48.3,30.10,ENE,68,0.0,0.0,45,0.00,,,0.00,WUHU216HW,2013-06-09 01:28:00,
2013-06-08 21:33:00,70.7,48.7,30.10,ENE,68,0.0,0.0,46,0.00,,,0.00,WUHU216HW,2013-06-09 01:33:00,
2013-06-08 21:38:00,70.1,48.3,30.10,ENE,68,0.0,0.0,46,0.00,,,0.00,WUHU216HW,2013-06-09 01:38:00,
2013-06-08 21:43:00,69.8,48.5,30.10,ENE,68,0.0,0.0,47,0.00,,,0.00,WUHU216HW,2013-06-09 01:43:00,
2013-06-08 21:48:00,69.6,48.4,30.10,ENE,68,0.0,0.0,47,0.00,,,0.00,WUHU216HW,2013-06-09 01:48:00,
2013-06-08 21:53:00,69.0,48.6,30.10,ENE,68,0.0,0.0,48,0.00,,,0.00,WUHU216HW,2013-06-09 01:53:00,
2013-06-08 21:59:00,68.7,48.2,30.11,ENE,68,0.0,0.0,48,0.00,,,0.00,WUHU216HW,2013-06-09 01:59:00,
2013-06-08 22:04:00,68.1,48.3,30.11,ENE,68,0.0,0.0,49,0.00,,,0.00,WUHU216HW,2013-06-09 02:04:00,
2013-06-08 22:09:00,67.8,48.5,30.11,ENE,68,0.0,0.0,50,0.00,,,0.00,WUHU216HW,2013-06-09 02:09:00,
2013-06-08 22:14:00,67.6,48.4,30.11,ENE,68,0.0,0.0,50,0.00,,,0.00,WUHU216HW,2013-06-09 02:14:00,
2013-06-08 22:19:00,67.6,48.9,30.11,ENE,68,0.0,0.0,51,0.00,,,0.00,WUHU216HW,2013-06-09 02:19:00,
2013-06-08 22:24:00,67.2,48.5,30.11,ENE,68,0.0,0.0,51,0.00,,,0.00,WUHU216HW,2013-06-09 02:24:00,
2013-06-08 22:29:00,67.1,48.9,30.11,ENE,68,0.0,0.0,52,0.00,,,0.00,WUHU216HW,2013-06-09 02:29:00,
2013-06-08 22:34:00,66.7,48.5,30.11,ENE,68,0.0,0.0,52,0.00,,,0.00,WUHU216HW,2013-06-09 02:34:00,
2013-06-08 22:39:00,66.5,48.4,30.11,ENE,68,0.0,0.0,52,0.00,,,0.00,WUHU216HW,2013-06-09 02:39:00,
2013-06-08 22:44:00,66.3,48.7,30.11,ENE,68,0.0,0.0,53,0.00,,,0.00,WUHU216HW,2013-06-09 02:44:00,
2013-06-08 22:49:00,66.0,48.3,30.11,ENE,68,0.0,0.0,53,0.00,,,0.00,WUHU216HW,2013-06-09 02:49:00,
2013-06-08 22:54:00,65.6,48.5,30.11,ENE,68,0.0,0.0,54,0.00,,,0.00,WUHU216HW,2013-06-09 02:54:00,
2013-06-08 22:59:00,65.4,48.3,30.11,ENE,68,0.0,0.0,54,0.00,,,0.00,WUHU216HW,2013-06-09 02:59:00,
2013-06-08 23:04:00,65.1,47.9,30.12,ENE,68,0.0,0.0,54,0.00,,,0.00,WUHU216HW,2013-06-09 03:04:00,
2013-06-08 23:09:00,64.9,48.2,30.11,ENE,68,0.0,0.0,55,0.00,,,0.00,WUHU216HW,2013-06-09 03:09:00,
2013-06-08 23:14:00,64.7,48.1,30.12,ENE,68,0.0,0.0,55,0.00,,,0.00,WUHU216HW,2013-06-09 03:14:00,
2013-06-08 23:19:00,64.5,48.4,30.11,ENE,68,0.0,0.0,56,0.00,,,0.00,WUHU216HW,2013-06-09 03:19:00,
2013-06-08 23:25:00,64.2,48.0,30.11,ENE,68,0.0,0.0,56,0.00,,,0.00,WUHU216HW,2013-06-09 03:25:00,
2013-06-08 23:30:00,64.2,48.5,30.11,ENE,68,0.0,0.0,57,0.00,,,0.00,WUHU216HW,2013-06-09 03:30:00,
2013-06-08 23:35:00,64.0,48.3,30.11,ENE,68,0.0,0.0,57,0.00,,,0.00,WUHU216HW,2013-06-09 03:35:00,
2013-06-08 23:40:00,63.8,48.0,30.11,ENE,68,0.0,0.0,57,0.00,,,0.00,WUHU216HW,2013-06-09 03:40:00,
2013-06-08 23:45:00,63.5,47.9,30.11,ENE,68,0.0,0.0,57,0.00,,,0.00,WUHU216HW,2013-06-09 03:45:00,
2013-06-08 23:50:00,63.3,48.2,30.11,ENE,68,0.0,0.0,58,0.00,,,0.00,WUHU216HW,2013-06-09 03:50:00,
2013-06-08 23:55:00,63.1,48.0,30.11,ENE,68,0.0,0.0,58,0.00,,,0.00,WUHU216HW,2013-06-09 03:55:00,